GEFSSGP_500_meanwind_252.txt.gz
Wind_Speed
1 0 0 0 0 1 1 1 1 1 1 1 2 2 2 2 3 3 3 4 4 4 3 4 4 4 5 5 5 5 6 6 6 6 6 6 7 7 7 7 7 7 7 7 8 8 9 9 9
1 0 0 1 1 0 1 1 2 2 1 1 2 2 2 3 3 3 3 4 4 4 4 5 5 5 6 6 6 6 7 7 7 7 6 7 7 7 8 8 8 8 9 8 8 8 9 9 10
1 1 1 1 1 1 0 1 2 2 1 1 2 2 2 3 3 3 3 4 4 4 5 6 6 6 6 7 7 7 7 7 7 7 7 8 7 7 8 8 8 9 10 9 9 9 9 10 10
2 2 2 1 0 0 1 2 2 2 2 2 2 2 2 2 3 4 4 4 5 5 6 6 6 6 6 7 7 7 7 7 7 8 8 8 8 8 8 8 8 9 10 10 10 9 10 10 11
2 2 2 1 0 0 1 1 2 2 2 2 2 2 2 3 3 4 5 5 5 5 6 6 6 6 7 7 7 7 8 8 8 8 8 8 8 8 8 9 8 8 9 10 10 10 10 11 11
2 2 2 1 1 1 1 1 2 2 3 3 2 2 3 3 4 4 5 5 6 6 6 7 6 6 6 6 7 7 8 8 8 8 8 8 8 8 7 8 8 8 8 9 10 11 10 11 11
2 2 1 1 1 1 1 2 2 2 3 4 3 3 4 4 4 5 5 5 6 6 7 7 7 7 6 7 7 7 8 8 8 8 8 8 8 8 8 8 8 9 9 9 9 10 10 11 11
2 2 2 2 2 2 2 3 4 4 4 4 4 4 4 5 6 6 6 6 6 6 7 7 7 7 7 7 7 7 7 8 8 8 8 9 8 8 8 8 8 9 9 9 9 10 10 10 11
3 3 3 2 2 2 3 3 4 5 5 5 5 5 6 6 7 7 7 6 6 6 7 7 7 7 7 7 7 7 7 8 8 8 8 9 9 9 9 9 9 9 9 9 9 9 9 9 10
4 4 3 3 3 3 3 3 5 6 5 6 6 6 6 6 7 7 7 7 7 7 7 7 7 7 7 7 8 8 7 7 7 8 8 9 9 9 9 9 9 9 9 9 9 9 9 9 10
4 4 4 4 3 3 3 4 5 5 5 6 6 6 6 7 7 7 7 7 7 7 7 7 7 7 7 7 8 8 7 7 7 7 8 8 9 9 9 9 9 9 9 9 8 8 9 10 11
5 4 4 4 3 3 3 4 4 4 5 6 7 7 8 8 8 8 8 8 7 7 7 7 7 7 7 7 8 7 8 7 7 8 8 9 9 8 8 8 9 9 9 9 8 8 9 10 11
5 5 5 4 3 4 4 4 4 5 5 6 7 7 8 8 8 8 8 8 8 7 7 7 7 7 7 7 7 7 8 7 7 8 8 8 8 8 8 8 8 8 8 8 8 8 9 10 10
5 5 5 5 4 4 5 5 5 5 6 7 7 7 7 8 8 8 8 8 8 7 6 6 7 7 7 7 7 7 8 8 8 8 8 8 8 8 8 8 7 7 7 7 7 8 9 11 11
6 6 6 6 6 5 6 6 6 6 7 7 7 7 7 8 8 8 8 8 8 7 6 6 7 7 7 7 7 7 7 8 8 8 8 7 7 8 8 7 7 6 6 7 8 9 10 10 10
6 6 6 6 6 6 6 6 6 6 6 7 7 8 8 9 9 9 8 8 8 7 7 6 7 7 7 7 7 7 7 7 8 8 7 7 7 7 7 7 6 6 7 7 7 8 8 9 9
7 6 6 6 6 5 5 5 5 6 6 7 7 8 8 8 8 8 8 8 7 8 7 7 7 7 7 7 8 8 8 8 7 7 6 6 6 6 6 6 6 6 6 7 7 7 7 8 8
7 7 6 6 6 5 4 4 5 6 6 7 7 8 8 8 8 8 8 8 8 7 7 7 6 7 7 7 8 8 8 8 7 6 6 6 6 6 6 6 6 6 6 6 6 6 7 7 8
8 7 6 6 6 5 5 5 5 5 6 6 7 7 8 7 7 8 8 8 7 7 6 7 7 7 7 7 8 8 8 7 6 6 6 6 6 6 6 6 5 5 5 5 6 7 7 7 7
8 7 7 6 5 5 5 5 5 5 6 6 7 7 7 7 7 8 8 7 7 6 6 7 7 7 7 7 7 7 7 6 6 6 6 6 5 5 6 6 5 5 5 6 6 6 7 7 7
9 9 8 7 6 7 7 6 5 5 6 6 6 7 7 7 7 8 7 7 6 6 6 7 7 7 7 7 7 7 6 6 5 5 5 5 5 5 6 5 5 5 5 5 5 6 7 7 7
11 10 10 9 8 8 8 7 6 6 6 6 6 7 7 7 7 7 7 7 7 7 7 7 7 7 7 7 7 6 6 6 5 5 4 4 5 5 5 5 5 5 5 5 5 5 6 7 6
12 12 11 11 11 10 8 8 6 7 7 7 7 7 7 7 7 7 7 7 7 7 7 7 7 7 6 7 7 6 5 5 5 5 4 4 4 5 5 5 5 5 5 5 5 5 6 6 6
13 13 13 13 12 12 10 9 7 7 7 7 7 7 7 7 6 7 7 8 7 7 7 7 7 6 6 7 7 6 6 5 5 5 4 5 5 5 5 5 5 5 5 6 6 6 7 7 7
14 14 14 14 13 12 11 10 9 8 7 7 7 7 7 7 7 7 7 8 8 7 7 7 7 7 7 7 7 6 6 5 5 5 5 5 5 6 6 6 6 6 6 6 6 6 6 7 6
14 15 15 14 14 13 12 12 10 9 8 8 8 8 8 8 8 8 8 8 8 7 8 7 7 7 7 7 7 7 7 6 6 6 6 6 6 7 7 7 6 6 6 6 6 7 6 6 6
15 16 16 15 15 14 14 13 11 10 9 8 9 9 9 9 9 9 9 8 9 8 8 8 8 8 8 8 8 8 7 7 7 7 6 6 7 7 7 6 6 6 6 6 6 6 6 5 5
16 15 16 17 16 15 15 15 13 12 10 9 9 9 9 10 10 9 9 9 9 9 9 9 8 8 8 8 8 7 7 7 7 7 7 7 7 7 7 7 6 6 6 6 6 7 6 6 5
18 17 17 18 18 17 16 14 13 12 11 11 10 10 10 10 10 10 10 10 10 10 10 9 9 8 8 9 8 8 7 7 7 7 8 8 8 8 8 7 7 8 8 8 7 7 7 7 6
19 19 19 19 19 18 17 16 15 14 13 12 12 12 12 11 11 11 11 11 11 11 10 10 10 9 10 10 9 8 8 8 9 9 9 9 9 8 8 8 8 8 8 7 7 7 7 7 7

GEFSSGP_500_meanwind_258.txt.gz
Wind_Speed
2 2 3 3 3 3 3 3 3 2 2 2 2 2 2 2 2 3 3 4 4 5 5 4 5 5 5 4 4 4 5 5 5 5 5 6 6 6 6 6 6 5 5 6 6 6 7 6 7
2 3 3 3 3 3 3 3 3 2 2 2 2 2 3 3 3 3 4 4 4 4 5 5 5 5 5 5 4 5 5 5 5 6 6 6 6 7 6 6 6 6 6 6 6 6 7 7 8
2 3 3 3 3 3 3 2 2 2 2 2 2 2 3 3 3 3 4 5 5 4 5 5 5 5 5 5 5 5 5 6 6 6 6 6 7 7 7 6 6 6 6 7 7 7 8 8 9
3 3 3 3 3 3 2 2 2 2 2 3 3 3 3 3 4 4 5 5 5 5 5 6 5 5 5 5 5 6 6 6 6 7 6 6 7 7 7 7 7 7 7 8 8 8 8 9 10
3 3 3 2 3 3 2 2 2 2 2 3 3 3 4 4 4 5 5 5 5 5 5 6 5 5 5 5 6 6 6 6 6 6 7 7 7 7 8 8 8 8 8 9 9 10 10 10 10
4 3 2 2 2 3 3 2 3 3 3 3 3 4 4 4 5 5 5 6 5 5 6 6 5 5 5 6 6 6 6 6 6 6 6 7 7 7 8 8 8 8 8 9 9 10 10 11 10
4 3 2 2 3 3 3 3 4 4 3 3 3 4 4 5 5 6 6 7 7 6 6 6 6 6 6 6 6 6 6 6 6 6 7 7 7 8 9 9 8 8 9 10 9 10 10 10 10
4 4 4 3 3 4 3 4 4 4 4 4 4 4 5 6 6 6 7 8 7 7 6 6 6 6 6 6 6 6 6 7 7 6 6 7 7 8 8 9 8 8 9 9 10 11 10 9 9
5 5 5 4 4 4 4 4 4 4 4 4 5 5 5 6 7 7 7 7 7 7 6 6 6 6 6 7 7 7 7 7 7 7 7 7 8 8 8 8 8 8 8 9 9 10 9 9 9
5 5 6 5 5 5 5 4 4 5 5 5 5 6 6 6 7 7 7 7 7 7 7 7 6 6 6 6 7 7 7 7 7 6 7 7 8 8 8 9 9 9 9 9 9 10 10 10 10
5 5 6 6 6 5 5 5 5 5 5 5 5 5 6 6 6 7 7 7 7 6 6 6 6 6 6 7 7 7 8 7 7 7 7 8 8 9 9 10 9 9 9 9 9 10 10 10 10
6 6 6 7 6 6 5 6 6 5 5 5 6 6 6 6 7 7 7 7 6 6 6 6 6 6 7 7 8 8 8 7 7 7 8 8 9 9 9 10 9 9 9 9 9 9 9 9 9
7 7 7 7 7 6 6 6 6 6 5 6 6 6 6 6 7 7 7 6 6 6 6 6 6 7 7 7 8 8 8 8 7 7 8 8 8 7 8 9 9 9 9 8 8 8 9 9 9
8 8 8 8 7 7 7 6 6 6 7 6 6 6 6 7 7 7 7 6 6 7 7 7 7 7 8 7 7 8 8 8 9 8 8 8 8 7 7 7 8 8 8 8 8 8 8 9 9
8 8 8 8 9 9 9 8 7 7 8 7 7 7 7 7 7 7 7 7 7 7 7 7 7 8 8 8 8 8 8 9 9 8 8 8 8 8 7 7 7 7 8 8 8 8 9 9 9
8 7 8 8 9 9 9 9 8 8 8 8 8 7 7 6 7 8 7 7 7 7 7 7 7 8 8 8 9 9 9 9 8 8 8 8 8 7 7 6 7 7 7 7 8 8 8 9 9
8 8 8 8 9 9 9 9 9 9 9 8 8 7 7 7 7 8 7 7 7 7 7 7 7 7 8 8 9 9 9 8 8 8 8 7 7 6 6 6 6 7 7 7 7 7 7 8 8
9 9 8 8 8 9 8 8 9 9 9 8 8 8 8 7 7 7 7 8 8 8 7 7 7 7 8 8 8 8 8 8 8 8 7 7 7 6 6 6 6 6 7 7 7 7 7 7 8
10 9 9 9 9 8 8 7 8 8 9 9 8 8 8 7 7 7 7 8 8 8 8 7 7 8 8 8 8 8 8 8 8 7 7 7 7 6 6 6 6 6 6 7 7 7 7 7 8
10 10 9 10 10 9 8 8 8 8 9 9 9 8 7 7 7 7 7 8 8 8 7 7 7 7 7 7 8 8 8 7 7 7 7 6 6 6 6 7 7 7 6 6 7 7 7 7 8
11 11 11 11 10 10 9 8 9 8 9 8 8 8 8 7 7 7 8 8 7 8 7 7 6 7 7 7 7 7 7 7 6 6 6 6 6 6 6 6 6 6 6 6 6 6 7 7 8
12 12 12 12 12 11 10 10 9 9 9 9 8 8 8 8 7 8 8 8 7 7 7 6 7 7 7 7 7 7 7 6 6 6 6 6 6 5 6 6 6 6 6 6 6 6 7 8 8
13 13 13 13 13 13 12 11 9 9 9 9 8 8 8 8 8 8 8 8 7 7 7 7 7 7 7 7 7 7 7 6 6 5 5 5 5 5 5 5 6 6 5 5 6 6 7 8 8
15 15 15 15 15 14 13 13 11 10 9 9 9 8 9 8 8 8 8 8 8 8 7 7 7 7 7 7 7 7 7 6 6 6 6 6 5 5 5 5 5 5 5 6 6 7 7 8 8
16 16 16 16 16 15 14 14 11 10 10 10 10 9 9 9 9 8 8 9 8 8 7 7 7 7 7 7 7 8 7 7 7 7 6 6 6 6 5 5 6 6 6 6 7 7 7 7 8
16 16 17 17 17 16 15 15 12 11 11 12 11 11 10 10 10 10 10 10 9 8 8 8 8 8 8 8 8 8 7 7 7 7 7 7 7 7 6 7 7 7 7 7 7 7 7 8 8
18 18 17 18 18 17 17 16 14 13 12 13 13 12 11 11 11 11 11 10 9 9 8 8 9 8 8 8 9 8 7 7 7 7 8 8 8 8 7 8 8 8 8 8 7 8 8 8 8
19 19 19 19 20 19 18 17 15 14 14 13 13 13 13 12 12 12 12 11 10 9 9 9 9 8 8 8 8 8 7 8 7 7 7 7 8 8 8 8 8 8 8 8 8 8 8 8 8
20 20 20 20 21 21 19 18 16 14 14 14 14 15 14 14 13 13 13 12 11 10 10 10 9 9 9 8 8 8 8 8 8 8 8 8 8 9 9 9 9 8 8 9 9 8 8 8 8
21 22 22 22 22 21 20 18 16 16 16 15 16 16 16 15 15 14 13 13 12 11 11 10 10 10 10 10 10 10 10 10 10 9 9 9 9 9 9 9 9 9 9 9 9 9 9 9 9

GEFSSGP_500_meanwind_264.txt.gz
Wind_Speed
1 1 2 2 2 2 2 2 2 2 1 1 1 1 1 1 1 2 2 2 3 3 3 3 3 3 3 3 3 4 4 5 5 5 5 5 5 5 4 4 4 4 5 5 5 5 5 5 5
1 1 1 2 2 2 2 2 2 2 1 1 1 1 1 1 1 1 2 3 3 3 3 3 4 4 4 4 4 4 4 5 5 5 5 5 5 5 5 5 5 5 5 5 5 5 5 5 6
1 1 1 1 1 2 2 2 2 2 1 1 1 1 2 2 2 2 2 2 2 3 3 4 4 4 4 5 4 5 5 6 6 6 6 6 6 6 6 6 6 6 5 5 5 5 6 6 6
1 2 2 1 1 1 2 2 2 2 2 2 2 1 2 2 2 2 2 3 3 3 3 4 4 4 5 5 5 5 6 6 6 6 6 6 6 6 7 7 7 6 6 6 5 5 6 7 7
2 2 2 1 1 1 2 2 2 2 2 2 2 2 2 2 3 3 3 3 3 3 3 4 4 5 5 5 5 5 5 5 6 6 6 6 6 7 7 7 7 7 7 6 6 6 6 7 7
2 2 1 1 1 2 2 2 3 3 3 3 3 3 3 3 3 3 3 4 4 3 3 4 4 4 5 5 5 6 6 6 6 6 6 6 7 7 8 8 8 8 8 8 7 7 7 7 8
2 2 2 2 2 3 3 3 3 3 3 4 4 4 4 4 4 4 4 4 4 4 4 4 5 5 5 6 6 7 6 7 7 7 7 7 7 8 8 8 8 9 9 9 9 9 8 8 9
2 3 2 3 3 3 3 4 4 4 4 4 4 5 5 5 5 5 5 5 5 5 5 5 5 5 6 6 7 7 7 7 7 7 6 6 6 7 8 8 9 9 9 9 10 10 10 9 9
3 3 3 3 3 4 4 4 4 4 4 4 5 5 5 5 6 6 6 6 6 6 6 6 6 5 6 6 7 7 7 7 7 7 7 6 6 6 7 8 8 9 9 9 9 10 10 10 10
3 3 3 4 4 4 4 4 4 4 4 5 5 5 6 6 6 6 6 6 7 7 7 7 6 6 6 6 7 8 8 8 7 7 7 7 7 7 7 8 8 8 9 9 9 9 10 10 10
4 4 4 4 4 4 4 5 4 4 4 5 5 5 6 5 5 6 6 6 7 7 7 7 6 6 7 7 7 7 8 8 8 8 8 8 8 7 8 8 8 8 8 8 9 10 10 10 10
5 5 5 5 5 4 5 5 5 5 5 6 5 6 5 5 6 6 6 7 7 7 7 7 7 7 7 7 7 8 8 8 8 8 8 8 8 8 9 8 8 8 8 8 9 9 10 10 11
5 6 6 6 5 5 5 5 5 6 6 6 6 6 5 5 6 7 7 7 7 7 7 7 8 8 8 8 8 8 8 7 7 8 8 8 9 8 8 7 7 7 8 8 9 9 9 9 9
6 6 6 6 6 6 6 6 6 6 7 6 6 6 6 6 7 7 7 7 7 7 7 8 8 8 8 8 9 9 8 8 8 8 8 8 9 8 8 7 7 7 7 7 8 8 8 8 9
6 6 6 6 7 7 7 7 7 7 7 7 7 7 7 7 7 7 7 7 8 8 7 8 8 9 9 9 9 9 9 8 8 8 8 8 8 8 8 7 7 7 7 8 8 8 9 9 9
6 6 7 7 8 8 8 8 8 8 8 7 8 8 8 8 8 8 8 8 8 8 8 8 8 8 9 9 9 9 9 8 8 8 8 8 8 7 7 7 7 7 7 8 9 9 9 9 9
7 7 7 8 8 8 9 9 9 8 8 8 8 8 8 8 8 8 8 8 8 8 8 8 8 8 8 9 9 8 8 8 8 8 8 7 7 7 6 7 7 7 7 7 8 8 9 9 9
8 8 8 8 8 8 8 9 9 8 8 7 7 8 8 8 8 8 8 8 8 8 8 8 8 8 8 8 8 8 8 8 7 7 7 6 6 6 6 7 7 7 7 7 7 7 8 8 8
9 9 9 9 8 8 8 8 8 8 8 7 7 7 8 8 8 8 8 8 8 8 8 8 8 8 8 8 7 7 7 7 6 6 7 6 6 6 6 6 7 7 7 7 7 8 7 7 8
9 9 10 9 9 9 9 8 8 8 8 7 7 7 7 8 8 8 8 8 8 8 8 8 8 7 7 7 7 7 7 6 6 6 6 6 7 7 6 6 6 6 6 7 7 8 7 7 8
10 10 10 10 9 10 10 9 9 8 8 8 8 7 7 8 8 8 9 9 9 8 8 8 8 7 6 7 7 7 6 6 6 6 6 5 6 6 6 6 6 6 6 6 7 7 8 8 8
11 11 11 11 10 11 11 11 9 10 9 9 8 8 8 8 8 9 9 9 9 9 8 8 7 6 6 6 7 6 6 6 6 6 6 6 6 6 6 6 6 6 6 7 7 7 7 7 8
13 12 12 12 11 12 11 12 11 11 10 9 9 9 8 8 9 9 9 9 9 9 9 8 7 7 7 7 7 7 6 6 5 5 6 6 6 6 6 6 6 6 7 7 7 7 7 7 8
14 14 13 13 13 13 12 12 11 11 10 10 10 10 9 9 10 10 10 10 9 9 9 9 8 8 8 7 7 7 6 6 6 6 6 6 6 6 6 7 6 7 7 7 7 7 7 7 7
14 14 14 14 14 14 13 13 13 12 11 11 11 11 10 10 10 10 10 10 10 10 10 9 9 8 8 8 8 7 7 6 6 6 6 6 6 7 7 6 6 6 6 7 7 7 7 7 7
14 14 14 15 15 15 15 15 14 13 12 12 12 12 11 11 11 11 11 11 11 11 11 10 10 9 9 9 9 8 8 7 7 7 7 7 7 7 7 7 7 7 7 7 7 7 7 7 7
15 15 15 16 16 16 16 16 16 15 13 12 12 12 12 12 12 12 12 12 12 11 11 11 11 10 10 10 10 9 9 8 8 8 8 7 8 8 8 7 7 7 7 7 7 8 8 8 8
16 16 16 16 16 17 17 17 16 15 14 14 14 14 13 13 13 13 13 13 13 12 12 12 12 12 11 11 10 10 10 9 8 9 8 8 8 8 7 7 7 8 8 8 8 8 8 8 8
17 17 17 17 18 18 18 18 17 15 15 15 15 15 15 15 14 14 14 14 14 14 13 12 12 12 12 12 12 12 11 10 10 9 9 9 9 9 8 8 8 8 8 8 8 8 8 8 8
18 18 18 19 19 19 19 20 18 17 17 17 17 17 17 16 16 16 15 15 15 15 14 14 14 13 13 13 13 12 11 11 11 11 10 10 10 10 9 9 9 9 9 8 8 8 8 9 9

GEFSSGP_500_meanwind_270.txt.gz
Wind_Speed
2 2 1 1 1 1 2 3 3 4 3 3 4 5 5 5 5 6 6 6 6 6 6 6 6 6 6 6 6 5 5 5 5 6 6 6 6 6 6 5 5 5 5 4 4 3 3 4 4
2 1 1 1 1 1 2 3 4 4 4 4 5 5 6 6 6 6 6 6 6 6 6 6 7 7 7 7 7 6 6 6 6 7 7 7 7 7 6 6 6 5 4 4 4 4 4 5 6
2 2 1 1 1 2 2 4 4 4 4 4 4 5 5 6 6 6 6 6 6 6 7 7 7 7 7 7 7 7 7 7 7 7 7 7 7 7 7 7 7 6 6 5 4 5 6 6 7
3 3 2 2 2 3 4 4 4 5 4 4 5 5 5 5 6 6 6 6 6 7 7 7 7 7 7 7 6 6 6 7 7 7 7 7 7 8 8 8 8 8 7 6 5 5 6 6 7
3 3 3 2 3 4 4 4 5 5 5 5 5 5 5 5 6 6 6 6 6 6 6 6 7 7 7 7 6 7 7 7 7 8 8 7 7 8 9 9 9 8 8 8 7 7 6 6 6
2 3 2 3 4 4 5 5 6 6 5 6 6 6 5 6 6 7 7 7 7 6 6 7 7 7 7 7 7 7 8 8 8 8 8 8 9 9 9 9 9 9 9 8 8 8 8 6 6
3 3 3 4 5 5 5 6 6 6 6 6 6 6 6 7 7 7 7 7 7 7 7 7 7 7 7 8 8 8 8 8 8 8 8 9 9 9 10 10 10 10 10 10 9 8 9 9 8
4 4 4 5 6 5 6 6 6 7 7 8 7 7 7 7 8 8 8 8 8 8 8 8 8 8 8 8 8 8 8 9 9 9 9 9 9 9 10 10 10 10 10 10 10 10 9 9 9
4 5 5 5 6 6 6 6 7 7 8 8 8 8 8 8 8 9 9 9 9 9 9 8 8 8 9 9 9 9 9 9 10 10 10 10 9 9 9 9 10 10 10 11 10 10 9 9 9
5 5 5 6 6 6 6 7 8 7 7 8 8 9 9 9 9 9 9 9 9 10 9 9 9 9 9 9 9 9 10 10 10 10 10 10 9 9 9 9 9 9 9 10 10 11 10 10 9
5 5 6 6 6 6 6 7 8 8 8 8 8 9 9 9 10 9 9 9 10 10 10 10 10 10 10 10 10 10 10 10 10 10 10 10 10 10 10 9 9 9 9 9 10 10 10 10 10
5 6 6 7 7 7 7 7 7 8 8 8 8 9 9 9 10 9 9 10 10 10 10 10 10 10 11 11 11 11 10 10 11 10 10 10 10 11 11 10 9 9 9 9 9 9 10 10 11
6 6 7 7 7 7 8 8 7 8 8 8 8 8 9 9 10 9 10 10 10 10 10 10 10 10 11 11 11 11 11 11 11 11 10 10 10 10 10 10 10 10 10 10 9 10 10 10 10
6 7 7 7 7 7 8 8 8 8 9 9 9 9 9 9 10 10 10 10 10 10 10 10 10 11 11 11 11 11 11 11 10 10 10 10 9 9 9 9 9 9 10 10 10 10 10 10 10
7 7 7 7 8 8 9 9 9 9 10 10 9 9 9 9 10 10 10 10 10 10 10 10 10 10 11 11 11 11 11 11 11 11 10 10 9 9 8 8 9 9 9 9 9 9 10 10 10
7 7 8 8 8 9 9 10 9 10 10 10 10 10 10 9 10 10 11 10 10 10 10 10 10 10 10 11 11 10 10 10 10 10 10 10 9 9 9 8 8 8 9 8 9 10 10 10 10
8 8 8 9 9 10 10 10 11 10 10 10 10 10 10 10 10 10 10 10 10 10 10 10 11 11 11 11 11 11 10 10 10 10 10 9 9 9 8 8 8 8 8 8 9 9 10 10 10
9 9 9 9 10 10 11 10 11 11 11 11 11 10 10 10 10 10 10 10 10 10 10 11 11 10 11 11 11 10 10 10 10 10 9 9 9 8 8 8 8 8 8 8 9 9 9 9 9
10 10 10 10 10 11 12 12 11 11 11 11 11 11 10 10 10 10 10 10 10 10 10 10 10 10 10 11 11 10 9 10 10 9 9 9 8 8 8 8 8 8 8 9 9 9 9 9 9
11 11 11 11 12 12 12 12 12 11 12 12 11 11 11 11 10 10 11 11 11 11 11 10 10 10 10 10 10 9 9 9 8 8 8 8 8 7 7 7 8 8 8 8 8 8 8 8 9
12 12 12 12 12 12 12 13 13 12 12 12 11 11 11 12 11 11 11 12 11 11 11 10 10 10 10 9 9 9 8 8 8 7 8 8 7 7 7 7 7 8 8 8 8 8 7 8 8
13 12 13 13 12 12 12 14 14 14 13 12 13 12 12 12 12 12 12 12 11 10 10 10 10 10 10 9 9 9 8 8 7 7 8 7 7 7 7 7 8 8 8 8 8 8 7 8 8
13 13 13 13 13 13 12 13 15 15 15 13 13 13 13 13 13 13 13 12 11 11 11 10 10 10 10 9 9 9 9 8 8 7 7 7 7 7 7 7 8 8 8 8 8 8 8 8 8
13 13 12 12 13 13 13 14 16 16 16 15 14 14 13 13 13 13 13 13 12 12 11 11 10 10 10 9 9 9 9 8 8 7 8 8 8 8 8 8 8 8 8 8 8 8 8 9 9
14 13 12 12 12 13 14 16 18 17 17 16 15 15 14 14 14 14 14 13 12 12 11 11 10 10 10 10 10 9 9 9 8 8 9 8 8 8 8 8 8 9 8 9 9 9 9 9 9
15 14 13 13 12 13 14 16 17 16 17 16 16 15 15 15 14 14 14 14 13 13 12 11 11 11 11 11 10 11 11 10 10 9 9 9 9 9 8 8 8 8 9 9 9 10 10 10 10
16 15 14 15 15 15 15 17 18 16 16 16 16 16 16 15 15 15 14 14 14 14 13 12 12 12 12 12 11 12 12 11 11 10 10 11 11 10 10 9 9 9 9 10 10 10 10 10 10
16 16 16 17 17 17 17 18 20 18 16 17 18 18 18 17 16 16 16 16 15 15 15 14 14 14 14 13 13 12 12 12 12 12 12 12 12 12 11 11 11 10 10 10 10 10 10 10 9
17 17 18 19 19 19 18 19 19 19 19 19 19 19 19 19 19 19 18 16 16 16 16 16 15 15 15 14 14 14 14 14 14 14 14 13 13 13 12 11 11 11 11 11 11 10 10 10 10
18 19 20 20 20 20 21 22 21 22 22 21 21 20 20 20 20 20 19 18 17 17 17 17 17 17 16 16 15 15 15 15 15 15 15 14 14 14 13 13 13 12 12 12 11 10 10 10 10

GEFSSGP_500_meanwind_276.txt.gz
Wind_Speed
1 1 1 1 1 2 2 2 1 2 2 2 2 3 3 3 3 4 4 4 4 4 4 4 4 4 5 5 5 4 4 5 5 5 5 5 5 5 6 5 5 6 6 6 6 5 6 8 10
1 1 1 1 2 2 2 1 2 2 2 2 2 3 3 3 3 4 4 4 4 5 4 4 4 4 5 5 5 5 5 5 5 5 5 5 6 6 6 6 6 6 5 5 5 4 4 6 8
2 2 2 2 2 2 2 1 2 3 3 2 3 3 3 3 3 4 4 4 5 5 5 5 4 5 5 6 6 6 6 6 6 5 5 6 6 6 6 6 6 6 5 5 5 4 4 4 6
2 2 3 3 3 2 2 2 2 3 3 3 3 3 3 3 3 4 4 4 4 5 5 5 5 5 5 6 6 6 6 6 6 6 6 6 7 7 6 6 6 6 6 6 5 5 5 5 7
2 3 4 4 3 3 2 2 3 3 3 3 3 3 3 3 4 4 4 4 4 5 5 5 5 6 6 6 6 6 6 6 6 7 7 7 7 7 7 7 7 7 7 6 6 6 6 6 7
3 3 4 4 4 3 3 3 3 3 3 3 3 3 4 4 4 5 5 5 5 5 6 6 6 6 6 7 7 7 6 6 7 7 7 7 8 8 8 8 8 8 8 7 7 7 8 7 8
3 4 4 4 4 3 4 3 4 3 3 3 3 4 4 4 4 5 5 5 5 6 6 7 7 6 7 7 7 7 7 7 7 7 7 8 8 9 9 9 10 10 10 9 8 8 7 8 8
4 4 4 4 4 4 4 3 4 4 4 4 4 4 5 5 5 5 5 5 5 6 7 7 7 7 7 7 7 7 7 7 7 8 8 8 8 9 9 9 9 10 10 10 9 8 8 8 8
4 4 4 4 4 4 4 4 4 4 5 5 5 5 5 6 6 6 6 6 6 6 7 7 7 7 8 8 7 7 7 7 8 8 9 9 9 8 8 8 9 9 9 9 9 9 9 8 9
4 4 4 4 4 4 4 4 4 4 5 5 5 5 6 6 6 6 7 7 7 7 7 8 8 8 8 8 8 8 8 8 8 8 9 9 9 9 9 9 8 8 8 8 8 8 9 9 9
4 4 4 4 4 4 4 4 4 4 5 5 5 6 6 6 6 6 7 7 7 7 8 8 9 9 8 8 8 8 8 8 8 8 8 9 9 9 9 8 8 8 8 8 8 9 9 9 9
4 4 4 4 4 5 5 4 4 4 5 5 5 6 6 6 6 6 7 7 7 7 7 8 8 8 8 8 8 8 8 8 8 8 8 8 9 9 8 8 8 8 8 8 8 8 9 8 8
4 4 4 5 5 5 4 4 4 4 5 5 5 6 6 6 7 7 7 7 7 7 7 7 8 8 8 8 8 8 8 8 8 8 8 7 7 7 7 7 8 7 7 8 8 8 8 8 8
4 4 4 4 4 4 4 4 4 4 5 5 5 5 6 7 7 7 7 7 7 7 6 7 7 7 8 8 8 8 8 7 7 7 7 7 7 7 7 7 7 7 7 7 8 8 8 7 8
5 4 4 4 4 4 5 4 5 5 5 5 5 6 6 7 7 7 7 7 7 7 7 7 7 7 7 8 8 8 7 7 7 7 7 7 6 6 6 6 6 6 7 7 7 8 8 8 8
5 5 4 4 4 5 5 4 5 5 5 5 6 6 6 7 7 7 7 7 7 7 7 7 7 7 7 8 8 7 7 7 7 7 7 7 6 6 6 6 6 6 7 7 8 8 8 8 8
6 6 5 5 5 5 6 5 5 6 6 6 6 6 6 6 7 7 7 7 7 7 7 7 7 7 7 7 7 7 7 6 6 6 6 6 6 6 6 6 6 7 7 7 7 7 7 7 7
7 7 7 7 6 6 7 6 6 7 7 7 7 6 6 6 7 7 7 7 8 8 8 8 8 8 7 7 8 7 7 6 6 6 6 6 6 6 6 6 6 6 6 6 6 6 7 7 8
9 9 8 8 7 8 8 8 7 7 7 7 6 7 7 7 7 7 7 8 8 8 9 8 8 8 7 7 7 7 7 6 5 5 6 6 6 6 6 6 6 6 7 7 6 7 7 7 7
10 10 9 9 9 9 8 8 7 7 7 7 7 7 7 8 8 8 7 7 8 8 9 8 8 8 7 7 7 7 6 6 5 5 6 6 5 5 5 5 5 6 6 7 7 7 7 7 7
11 10 10 10 9 9 9 8 8 8 8 8 8 8 8 8 8 8 8 8 8 8 9 9 8 8 7 7 7 7 6 6 6 6 6 6 5 5 5 5 5 5 5 6 6 6 6 7 7
11 11 11 11 11 10 10 9 8 8 7 8 8 9 8 8 8 8 8 9 9 9 9 8 8 8 8 7 7 7 6 6 6 6 6 5 5 5 5 6 5 5 5 5 5 6 6 6 6
12 12 12 13 12 12 11 11 10 9 8 9 9 9 9 9 9 9 9 9 9 9 9 9 8 8 7 7 7 7 7 7 6 6 5 5 5 5 5 5 5 5 6 6 6 6 7 7 7
13 13 13 13 13 13 12 12 11 10 9 10 10 10 11 10 10 10 10 10 10 10 9 9 9 8 8 8 7 7 8 7 7 6 6 5 5 5 5 5 6 6 6 7 7 7 8 7 7
13 13 14 14 14 13 13 14 12 11 10 10 10 11 12 11 11 11 11 10 11 10 10 10 10 9 9 8 8 8 8 7 7 7 7 6 6 6 6 6 6 7 7 7 8 8 8 8 9
13 14 15 15 14 13 14 15 13 12 11 11 11 12 12 11 11 11 11 11 12 12 11 10 10 11 10 10 9 9 9 9 8 8 8 8 7 7 7 7 7 7 8 8 8 9 9 9 10
14 14 15 16 16 16 16 15 14 13 12 12 12 13 13 13 13 13 13 13 13 13 12 12 12 11 11 11 11 11 10 10 9 9 9 9 9 9 8 8 8 9 9 9 9 9 10 10 10
15 15 16 17 17 17 17 16 15 15 14 14 14 14 15 15 15 15 15 14 14 14 15 14 13 13 12 13 12 12 12 11 11 11 11 11 10 10 10 10 10 10 10 10 10 10 11 11 10
17 17 17 18 19 19 19 17 17 17 17 17 16 16 16 16 16 16 17 16 15 16 16 15 15 14 14 14 14 14 14 13 13 12 12 12 12 12 12 12 12 12 11 11 11 11 11 10 10
19 19 19 19 20 21 22 20 18 19 19 19 18 18 17 17 18 18 18 18 17 17 16 16 16 16 16 16 16 16 15 15 14 14 13 13 14 14 13 13 13 13 13 12 12 12 11 11 10

GEFSSGP_500_meanwind_282.txt.gz
Wind_Speed
2 3 3 3 3 3 3 3 3 2 2 3 3 3 3 3 3 3 3 3 3 3 3 3 4 4 4 4 4 4 4 4 4 4 4 4 4 5 5 5 5 5 5 6 6 7 7 8 9
3 3 3 2 3 3 3 3 3 3 2 3 3 3 3 3 4 4 3 3 3 3 3 4 4 5 5 4 5 4 4 4 4 5 5 5 6 6 6 6 6 6 6 6 8 9 10 9 10
4 3 3 3 3 3 3 3 3 3 3 3 3 4 3 3 4 4 4 4 4 4 4 4 4 5 5 5 5 5 5 5 5 5 6 6 7 6 6 6 6 6 7 7 8 8 9 10 10
4 4 4 4 4 4 4 4 3 3 3 3 4 4 4 3 4 4 5 5 5 5 5 4 5 5 5 5 5 5 5 5 6 6 6 7 7 6 6 6 6 6 7 7 7 6 6 8 9
5 4 4 4 4 4 4 4 3 3 3 4 4 4 4 4 4 5 5 6 6 6 5 5 5 5 5 5 5 5 6 6 6 6 6 7 7 6 6 6 6 6 7 7 7 5 5 6 7
4 4 4 4 4 5 5 4 4 4 4 5 5 4 5 5 5 6 6 6 6 6 6 5 5 5 5 5 6 6 6 6 6 6 6 6 7 7 7 6 6 7 7 6 6 5 5 6 8
4 4 5 5 5 5 5 5 5 5 5 5 5 5 5 5 6 6 6 6 6 6 5 5 5 6 6 6 6 6 6 6 6 6 6 7 7 7 8 8 8 8 8 7 7 6 6 7 8
5 5 5 5 5 5 5 5 5 5 5 5 5 5 5 6 6 6 6 6 5 5 5 6 6 6 6 6 6 6 7 6 7 7 7 7 8 8 8 8 8 8 8 8 8 7 7 8 8
5 5 5 5 5 5 5 5 5 5 5 5 5 5 5 6 6 6 6 6 6 6 6 6 6 6 6 6 7 7 7 7 7 7 8 8 8 8 8 8 7 8 8 8 7 7 7 8 8
5 5 5 5 5 5 5 5 5 4 5 5 5 5 5 5 6 6 6 6 7 7 7 7 6 6 7 7 7 7 7 7 7 7 7 8 8 8 7 8 7 8 8 8 8 8 7 8 8
5 5 5 5 5 5 4 5 5 5 5 5 5 5 5 5 6 6 6 7 7 7 7 7 7 7 7 7 7 7 7 7 7 7 7 7 8 8 8 8 8 8 8 9 9 8 8 8 8
5 5 5 5 5 5 5 5 5 4 4 4 5 5 4 5 5 5 5 6 7 7 6 6 6 6 7 7 7 7 7 8 8 8 8 8 8 8 9 9 9 9 9 9 9 9 8 8 8
5 5 5 5 5 5 4 4 4 4 4 5 5 5 4 5 5 5 5 5 6 6 6 6 6 6 6 7 7 7 7 8 8 8 8 7 7 7 7 8 8 8 9 9 9 9 8 9 9
6 6 5 5 5 4 4 4 4 4 5 5 5 5 4 4 5 5 5 5 5 6 6 5 6 6 6 6 7 7 8 7 7 7 7 7 6 6 6 7 7 8 8 9 9 9 9 9 9
6 5 5 5 5 5 5 4 5 5 6 6 5 5 5 4 5 5 5 5 5 5 6 6 6 6 6 6 7 7 7 6 7 6 6 6 6 6 6 6 7 7 7 8 8 8 8 8 8
7 6 6 6 6 5 5 5 5 6 6 6 6 6 5 5 5 5 5 5 5 6 6 6 6 7 7 7 7 7 6 6 6 6 6 6 6 6 6 6 6 7 7 7 7 7 7 7 7
8 7 7 7 7 7 7 6 6 7 7 7 6 6 6 6 5 5 5 5 5 6 6 7 7 7 7 7 6 6 6 6 6 6 6 6 7 6 6 6 6 6 7 7 7 7 7 7 8
8 8 8 8 8 8 8 7 7 8 8 8 7 7 6 6 6 6 6 6 6 6 6 7 7 7 7 7 7 6 7 7 6 6 6 6 6 6 7 7 7 7 7 7 7 7 7 7 8
9 9 9 9 9 9 9 8 8 8 8 9 9 8 8 7 7 7 7 7 7 7 7 7 7 7 7 7 8 7 7 7 6 6 7 7 7 7 7 7 7 7 7 8 8 8 7 7 7
10 10 10 10 10 10 10 10 9 9 9 10 10 9 9 8 8 8 8 8 8 8 7 7 7 7 7 7 7 7 7 7 7 7 7 7 7 7 7 7 6 7 7 7 7 7 6 7 7
11 11 11 11 11 11 11 11 11 11 11 11 11 11 10 10 9 9 9 9 8 8 8 8 7 7 7 7 7 7 7 7 7 7 7 6 6 6 6 6 7 7 6 5 5 6 6 6 6
11 11 12 12 12 12 12 12 12 11 12 12 12 12 11 11 10 10 10 10 10 9 9 9 8 8 8 8 8 8 8 8 7 7 6 6 5 5 6 6 7 6 6 5 5 5 6 6 6
12 13 13 13 14 14 13 14 13 13 13 13 12 12 12 12 11 11 11 11 10 10 9 9 9 9 8 8 9 9 8 8 8 7 6 6 5 6 6 6 6 6 6 6 6 6 6 7 7
13 13 13 14 14 14 14 15 14 14 14 14 14 13 13 13 12 12 13 12 12 12 11 10 10 10 10 10 10 9 9 9 9 8 8 7 7 7 7 7 7 7 8 8 7 7 7 7 8
14 14 14 15 15 15 14 15 14 14 15 15 15 14 14 15 14 14 14 14 14 13 13 11 11 11 11 11 11 11 11 10 10 9 9 8 8 8 9 8 8 9 9 8 8 8 8 8 8
14 14 15 16 16 15 16 16 15 15 16 16 16 16 16 16 17 16 15 15 14 14 14 13 12 12 12 12 12 12 12 11 11 10 10 10 10 10 10 10 10 10 10 10 10 10 10 9 9
16 16 16 17 17 17 16 16 16 16 16 17 17 17 18 17 17 17 16 15 15 15 15 15 14 14 14 14 14 14 13 13 12 12 11 12 12 12 12 12 11 11 11 11 11 11 11 11 10
17 17 17 19 19 19 18 17 17 16 17 18 19 19 18 18 18 18 18 18 17 16 16 16 16 15 15 14 15 15 15 15 14 14 13 13 13 13 13 13 13 13 13 13 13 12 12 12 11
18 19 19 20 21 21 19 17 17 17 18 19 19 20 20 19 19 18 18 19 18 17 17 17 17 16 16 16 16 17 17 17 16 16 15 15 15 14 14 14 14 14 14 14 14 14 14 13 13
19 20 20 21 21 21 21 18 18 18 18 19 20 20 20 21 20 20 20 20 20 19 18 18 18 18 17 17 18 18 19 18 18 17 17 17 17 16 16 16 15 15 15 15 15 15 14 14 14